Regional Weather Roundup
Issued by NWS Bismarck, ND

Home | Current Version | Previous Version | Text Only | Print | Product List | Glossary On
Versions: 1 2 3 4 5 6 7 8 9 10 11 12 13 14 15 16 17 18 19 20 21 22 23 24 25 26 27 28 29 30 31 32 33 34 35 36 37 38 39 40 41 42 43 44 45 46 47 48 49 50
000
ASUS43 KBIS 231159
RWRBIS

NWR BROADCAST TEXT
NATIONAL WEATHER SERVICE BISMARCK ND
700 AM CDT THU OCT 23 2014

NOTE: "FAIR" INDICATES FEW OR NO CLOUDS BELOW 12,000 FEET WITH NO
SIGNIFICANT WEATHER AND/OR OBSTRUCTIONS TO VISIBILITY.


CITY           SKY/WX    TMP DP  RH WIND       PRES   REMARKS
WILLISTON      CLEAR     34  30  85 SW3       29.85S
MINOT          CLEAR     42  33  70 SW10      29.83F
MINOT AFB      NOT AVBL
BISMARCK       CLEAR     31  28  89 SE3       29.92S
DICKINSON      NOT AVBL
GARRISON         N/A     39  36  89 SW3       29.86F
HETTINGER ARPT CLEAR     35  26  69 CALM      29.93R
JAMESTOWN      NOT AVBL
CARRINGTON     FAIR      41  39  93 SW8       29.89S
$$

CITY           SKY/WX    TMP DP  RH WIND       PRES   REMARKS
GRAND FORKS    PTCLDY    40  39  97 S6        29.84R
GRAND FORKS AF NOT AVBL
DEVILS LAKE    CLEAR     46  36  66 SW12      29.84S
FARGO          CLEAR     42  40  92 S8        29.91R
GWINNER        SUNNY     41  41 100 SW12      29.94S
$$

CITY           SKY/WX    TMP DP  RH WIND       PRES   REMARKS
ABERDEEN       CLEAR     33  32  96 S5        29.97R
MOBRIDGE       CLEAR     41  33  73 SE5       29.93F
RAPID CITY     CLEAR     38  25  59 NW9       29.98S
GLASGOW        CLEAR     38  33  82 SE12      29.80F
SIDNEY         CLEAR     32  28  86 S3        29.88R
WOLF POINT     CLEAR     28  24  85 CALM      29.84R
GLENDIVE       CLEAR     34  27  75 S10       29.89S
MILES CITY     CLEAR     36  26  67 S7        29.89S
BAKER          CLEAR     41  27  57 SW9       29.91F
$$

CITY           SKY/WX    TMP DP  RH WIND       PRES   REMARKS
BILLINGS       CLOUDY    50  23  34 SW15      29.90F
GREAT FALLS    CLOUDY    52  32  46 S14       29.80S
$$




USA.gov is the U.S. government's official web portal to all federal, state and local government web resources and services.